Location: Erlenbrunn
(49.1717°N, 7.6142°E)
Time: 17:26:00
(UTC+00:00)

USA 81 - Pass Details

Date: 25 November 2020
Orbit: 783 x 791 km, 85.0° (Epoch: 30 November)

Event Time Altitude Azimuth Distance (km) Brightness Sun altitude
Rises 17:06:27 0° 357° (N) 3,288 7.1 -14.1°
Reaches altitude 10° 17:08:52 10° 2° (N) 2,356 6.4 -14.4°
Maximum altitude 17:14:03 54° 80° (E) 957 4.1 -15.3°
Drops below altitude 10° 17:19:12 10° 157° (SSE) 2,344 6.4 -16.1°
Sets 17:21:36 0° 162° (SSE) 3,270 7.2 -16.5°
